Location: Bailleul
(50.3375°N, 2.8513°E)
Time: 02:50:57
(UTC+00:00)

Cosmos 1725 Rocket - Visible Passes

Search period start: 23 October 2021 00:00
Search period end: 02 November 2021 00:00
Orbit: 961 x 991 km, 82.9° (Epoch: 22 October)

Date Brightness Start Highest point End Pass type
(mag) Time Alt. Az. Time Alt. Az. Time Alt. Az.
23 Oct 6.4 05:20:10 10° NNE 05:24:41 21° ENE 05:29:11 10° ESE visible
23 Oct 5.7 19:04:42 16° NE 19:04:42 16° NE 19:06:03 10° NNE visible
23 Oct 5.7 20:49:21 25° N 20:49:21 25° N 20:51:57 10° N visible
23 Oct 6.7 22:34:01 11° NW 22:34:01 11° NW 22:34:47 10° NNW visible
24 Oct 5.8 05:45:15 10° N 05:50:46 33° ENE 05:56:15 10° SE visible
24 Oct 5.4 19:29:50 23° NNE 19:29:50 23° NNE 19:32:05 10° NNE visible
24 Oct 5.9 21:14:29 23° NNW 21:14:29 23° NNW 21:17:18 10° N visible
25 Oct 6.8 04:27:49 10° NE 04:29:39 11° NE 04:31:28 10° ENE visible
25 Oct 5.8 18:10:14 11° NE 18:10:14 11° NE 18:10:44 10° NE visible
25 Oct 5.2 19:54:52 30° NNE 19:54:52 30° NNE 19:57:50 10° N visible
25 Oct 6.2 21:39:31 19° NW 21:39:31 19° NW 21:42:23 10° NNW visible
26 Oct 6.5 04:51:49 10° NNE 04:55:59 18° ENE 05:00:09 10° ESE visible
26 Oct 5.4 18:35:09 19° NE 18:35:09 19° NE 18:37:21 10° NNE visible
26 Oct 5.1 20:19:46 36° NNW 20:19:46 36° NNW 20:23:26 10° N visible
26 Oct 6.6 22:04:24 13° NW 22:04:24 13° NW 22:06:49 10° NNW visible
27 Oct 6.0 05:16:48 10° N 05:22:07 29° ENE 05:27:26 10° SE visible
27 Oct 4.8 18:59:49 32° NE 18:59:49 32° NE 19:03:26 10° NNE visible
27 Oct 5.4 20:44:26 33° NW 20:44:26 33° NW 20:48:50 10° N visible
28 Oct 5.1 05:42:06 10° N 05:48:03 47° ENE 05:54:00 10° SSE visible
28 Oct 5.5 17:39:22 14° ENE 17:39:22 14° ENE 17:41:44 10° NE visible
28 Oct 4.0 19:16:53 10° S 19:23:54 65° NE 19:29:16 10° NNE visible
28 Oct 5.9 21:08:25 23° WNW 21:09:09 23° WNW 21:14:00 10° N visible
29 Oct 6.6 04:23:30 10° NNE 04:27:17 16° ENE 04:31:03 10° E visible
29 Oct 4.9 17:59:05 10° SE 18:03:51 24° E 18:08:37 10° NNE visible
29 Oct 4.2 19:42:31 10° SSW 19:48:42 68° WNW 19:54:53 10° N visible
29 Oct 6.5 21:32:08 10° W 21:35:24 14° NW 21:38:40 10° NNW visible
30 Oct 6.1 04:48:20 10° N 04:53:27 26° ENE 04:58:33 10° ESE visible
30 Oct 4.3 18:23:26 10° SSE 18:29:06 39° E 18:34:48 10° NNE visible
30 Oct 5.0 20:08:41 10° SW 20:14:30 41° WNW 20:20:21 10° N visible
31 Oct 5.3 05:13:35 10° N 05:19:27 42° ENE 05:25:16 10° SE visible
31 Oct 5.5 17:08:11 10° E 17:10:22 12° ENE 17:12:32 10° NE visible
31 Oct 3.8 18:48:25 10° S 18:54:32 66° E 19:00:40 10° NNE visible
31 Oct 5.8 20:35:25 10° WSW 20:40:30 26° WNW 20:45:35 10° N visible
01 Nov 6.7 03:55:14 10° NNE 03:58:33 15° NE 04:01:52 10° E visible
01 Nov 4.4 05:39:03 10° N 05:45:14 69° ENE 05:51:25 10° SSE visible
01 Nov 5.0 17:30:59 10° SE 17:35:25 21° E 17:39:50 10° NE visible
01 Nov 4.0 19:13:55 10° SSW 19:20:08 76° WNW 19:26:21 10° N visible
01 Nov 6.4 21:02:57 10° W 21:06:40 16° WNW 21:10:25 10° NNW visible
